Location: Hillern
(53.0557°N, 9.8577°E)
Time: 01:00:38
(UTC+00:00)

Iridium 4 Rocket - Pass Details

Date: 19 May 2025
Orbit: 582 x 886 km, 86.9° (Epoch: 15 June)

Event Time Altitude Azimuth Distance (km) Brightness Sun altitude
Rises 19:57:41 0° 355° (N) 3,123 7.5 -5.2°
Reaches altitude 10° 19:59:54 10° 356° (N) 2,244 6.7 -5.5°
Maximum altitude 20:04:57 87° 271° (W) 788 3.6 -6.0°
Drops below altitude 10° 20:10:24 10° 180° (S) 2,422 5.7 -6.6°
Sets 20:12:52 0° 180° (S) 3,388 6.4 -6.8°
